[TLELIST] Archives

 

[TLELIST] Current TLEs

October 16th 2023 PDT

HST 1 20580U 90037B 23288.77520193 .00007218 00000-0 37209-3 0 9993 2 20580 28.4685 184.9966 0002400 247.9603 157.5506 15.14461064639751 ISS (ZARYA) 1 25544U 98067A 23289.35247315 .00021362 00000-0 37739-3 0 9990 2 25544 51.6422 88.3675 0004766 107.9430 328.8030 15.50282840420584 CXO 1 25867U 99040B 23292.23645940 .00001138 00000-0 00000+0 0 9993 2 25867 37.4345 181.0595 9038519 275.3293 0.3583 0.37815694 24807 ...Continue Reading

[TLELIST] Current TLEs

October 15th 2023 PDT

HST 1 20580U 90037B 23287.92512726 .00008212 00000-0 42483-3 0 9997 2 20580 28.4687 190.6630 0002408 237.8707 203.7726 15.14449754639622 ISS (ZARYA) 1 25544U 98067A 23288.38480897 .00022213 00000-0 39262-3 0 9995 2 25544 51.6420 93.1618 0004875 107.0672 325.6388 15.50242686420432 CXO 1 25867U 99040B 23289.59342243 .00001130 00000-0 00000+0 0 9990 2 25867 37.4290 181.3166 9040202 275.1298 0.4601 0.37816627 24795 ...Continue Reading

[TLELIST] Current TLEs

October 14th 2023 PDT

HST 1 20580U 90037B 23286.93605553 .00009894 00000-0 51398-3 0 9990 2 20580 28.4687 197.2563 0002423 226.5142 211.9839 15.14435737639470 ISS (ZARYA) 1 25544U 98067A 23287.35265946 .00021274 00000-0 37707-3 0 9995 2 25544 51.6418 98.2768 0004937 104.8433 323.8373 15.50192319420273 CXO 1 25867U 99040B 23289.59342243 .00001130 00000-0 00000+0 0 9990 2 25867 37.4290 181.3166 9040202 275.1298 0.4601 0.37816627 24795 ...Continue Reading

[TLELIST] Current TLEs

October 13th 2023 PDT

HST 1 20580U 90037B 23286.15056237 .00008261 00000-0 42775-3 0 9999 2 20580 28.4687 202.4923 0002426 217.8475 249.6635 15.14419725639611 ISS (ZARYA) 1 25544U 98067A 23286.06909813 .00021700 00000-0 38519-3 0 9996 2 25544 51.6420 104.6377 0004928 101.3045 359.6121 15.50137761420071 CXO 1 25867U 99040B 23286.94962252 .00001128 00000-0 00000-0 0 9992 2 25867 37.4219 181.6169 9043275 274.8909 0.4910 0.37818299 13620 ...Continue Reading

[TLELIST] Current TLEs

October 12th 2023 PDT

HST 1 20580U 90037B 23284.88834177 .00008905 00000-0 46212-3 0 9999 2 20580 28.4686 210.9057 0002482 203.2692 209.0727 15.14399591639423 ISS (ZARYA) 1 25544U 98067A 23285.35318479 .00022421 00000-0 39807-3 0 9991 2 25544 51.6416 108.1852 0005012 100.4182 322.7598 15.50109624419962 CXO 1 25867U 99040B 23286.94962252 .00001128 00000-0 00000-0 0 9992 2 25867 37.4219 181.6169 9043275 274.8909 0.4910 0.37818299 13620 ...Continue Reading

[TLELIST] Current TLEs

October 11th 2023 PDT

HST 1 20580U 90037B 23283.52451720 .00008739 00000-0 45367-3 0 9993 2 20580 28.4684 219.9961 0002512 187.8179 334.4279 15.14375172638956 ISS (ZARYA) 1 25544U 98067A 23284.27668525 .00022600 00000-0 40187-3 0 9993 2 25544 51.6420 113.5213 0004877 96.0949 75.9182 15.50061495419797 CXO 1 25867U 99040B 23286.94833202 .00001128 00000-0 00000-0 0 9994 2 25867 37.4219 181.6172 9043265 274.8906 0.3153 0.37818440 13626 ...Continue Reading

[TLELIST] Current TLEs

October 11th 2023 PDT

HST 1 20580U 90037B 23283.52451720 .00008739 00000-0 45367-3 0 9993 2 20580 28.4684 219.9961 0002512 187.8179 334.4279 15.14375172638956 ISS (ZARYA) 1 25544U 98067A 23284.27668525 .00022600 00000-0 40187-3 0 9993 2 25544 51.6420 113.5213 0004877 96.0949 75.9182 15.50061495419797 CXO 1 25867U 99040B 23286.94833202 .00001128 00000-0 00000-0 0 9994 2 25867 37.4219 181.6172 9043265 274.8906 0.3153 0.37818440 13626 ...Continue Reading

[TLELIST] Current TLEs

October 11th 2023 PDT

HST 1 20580U 90037B 23283.52451720 .00008739 00000-0 45367-3 0 9993 2 20580 28.4684 219.9961 0002512 187.8179 334.4279 15.14375172638956 ISS (ZARYA) 1 25544U 98067A 23284.27668525 .00022600 00000-0 40187-3 0 9993 2 25544 51.6420 113.5213 0004877 96.0949 75.9182 15.50061495419797 CXO 1 25867U 99040B 23286.94833202 .00001128 00000-0 00000-0 0 9994 2 25867 37.4219 181.6172 9043265 274.8906 0.3153 0.37818440 13626 ...Continue Reading

[TLELIST] Current TLEs

October 10th 2023 PDT

HST 1 20580U 90037B 23282.26389097 .00009092 00000-0 47264-3 0 9991 2 20580 28.4684 228.3987 0002562 173.5803 302.4121 15.14353138638767 ISS (ZARYA) 1 25544U 98067A 23283.30929993 .00020444 00000-0 36502-3 0 9995 2 25544 51.6412 118.3130 0005133 93.5711 76.7153 15.50010264419643 CXO 1 25867U 99040B 23284.30528389 .00001100 00000-0 00000-0 0 9999 2 25867 37.4084 181.9652 9046214 274.6064 0.4955 0.37814756 13618 ...Continue Reading

[TLELIST] Current TLEs

October 9th 2023 PDT

HST 1 20580U 90037B 23282.20296469 .00009015 00000-0 46857-3 0 9997 2 20580 28.4684 228.8047 0002566 173.0024 330.1787 15.14351918639023 ISS (ZARYA) 1 25544U 98067A 23282.30784722 .00020103 00000-0 35964-3 0 9996 2 25544 51.6405 123.2746 0005141 89.6288 248.8929 15.49967065419480 CXO 1 25867U 99040B 23284.30528389 .00001100 00000-0 00000-0 0 9999 2 25867 37.4084 181.9652 9046214 274.6064 0.4955 0.37814756 13618 ...Continue Reading
  • This mailing list is a public mailing list - anyone may join or leave, at any time.
  • This mailing list is announce-only.

International Space Station (ISS) / Hubble Space Telescope (HST) / Chandra X-Ray Observatory Orbital Data via EMAIL

Privacy Policy:

Private list